sat.trackr.live / text

‹ back to catalog

STARLINK-35938

NORAD 66644 · 2025-271AD

PAYLOAD ACTIVE UNKNOWN

§ Identity

Operator
Country
US
Launch date
2025-11-23
Launch site
AFWTR
Launch vehicle
Mass (kg)
RCS (m²)

Purposes: comms

External: N2YO · Heavens-Above · Gunter

§ Orbital elements

Epoch: 2026-09-19T19:13:15.281184Z

Period
93.85 min
Inclination
53.1585°
Eccentricity
0.0001829
Mean motion
15.34405124 rev/d
Perigee alt
461.4 km
Apogee alt
463.9 km
Semi-major
6,840.8 km
B*
4.4666e-4
RAAN
317.0526°
Arg perigee
91.3447°
Mean anomaly
268.7765°
Rev number
4,730

§ Raw data

STARLINK-359381 66644U 25271AD  26262.80087131  .00014747  00000+0  44666-3 0  99902 66644  53.1585 317.0526 0001829  91.3447 268.7765 15.34405124 47301

JSON: /api/v1/satellites/66644 · /tle

For live sub-satellite position, see the globe view (requires WebGL).

§ Visibility from observer

Set your observer location to see the next 7 days of passes ≥ 10°. The values pass through the URL so the page stays shareable.

No JS? Fill the form by hand. The geolocation button needs JavaScript.